Location: Dortmund
(51.5019°N, 7.6520°E)
Time: 09:21:24
(UTC+01:00)

ISS - Visible Passes

Search period start: 17 February 2019 00:00
Search period end: 27 February 2019 00:00
Orbit: 403 x 411 km, 51.6° (Epoch: 17 February)

Date Brightness Start Highest point End Pass type
(mag) Time Alt. Az. Time Alt. Az. Time Alt. Az.
23 Feb -0.7 06:35:02 10° SSE 06:36:26 12° SE 06:37:51 10° ESE visible
25 Feb -1.5 06:26:59 10° SSW 06:29:37 22° SE 06:32:15 10° E visible
26 Feb -1.1 05:36:22 10° S 05:38:18 15° SE 05:40:16 10° ESE visible
